Simultaneous Nadir Overpasses (SNOs) Predictions

Prediction of SNOs near equator between AQUA and NPP Satellite Orbit:

Table of predicted SNOs near equator for the next 14.0 days since TLE Epoch: 11/17/2012
Index Date (AQUA) Time (AQUA) AQUA Lat,Lon Date (NPP) Time (NPP) NPP Lat,Lon Distance(km) Time Diff (sec)
1 11/18/2012 09:30:45 3.65, 60.59 11/18/2012 09:21:27 3.52, 59.86 82.65 558
2 11/21/2012 01:02:42 -21.58, 4.87 11/21/2012 00:52:42 -21.60, 4.12 78.30 600
3 11/21/2012 01:46:52 2.21, 176.77 11/21/2012 01:37:58 2.05, 175.95 92.39 534
4 11/23/2012 17:14:40 -5.27, 124.38 11/23/2012 17:04:56 -5.11, 123.74 72.65 584
5 11/26/2012 09:30:41 -3.64,-119.39 11/26/2012 09:21:24 -3.47,-120.12 83.54 557
6 11/29/2012 00:58:54 7.79,-172.04 11/29/2012 00:48:54 7.87,-172.67 70.20 600
7 11/29/2012 01:46:39
